CW1575 Weather Reports


Display with metric or nautical units.
time (UTC)temp
F
wind
direction
speed
MPH
gust
MPH
rain 1hr
in
rain 24hr
in
rain mn
in
humidity
%
barometer
mb
20170727184504 83 118 0.0 3.0 0.00 0.22 0.01 50 1023.7
20170727184004 83 107 2.0 3.0 0.00 0.22 0.01 50 1023.9
20170727183504 82 39 1.0 6.0 0.00 0.22 0.01 53 1023.9
20170727183007 82 96 2.0 3.0 0.00 0.22 0.01 51 1024.0
20170727182504 82 235 2.0 3.0 0.00 0.22 0.01 52 1024.4
20170727182005 81 247 1.0 3.0 0.00 0.22 0.01 53 1024.1
20170727181504 81 270 2.0 3.0 0.00 0.22 0.01 56 1024.3
20170727181004 80 5 2.0 7.0 0.00 0.22 0.01 57 1024.2
20170727180503 80 101 2.0 7.0 0.00 0.22 0.01 54 1024.4
20170727180004 80 14 3.0 5.0 0.00 0.22 0.01 55 1024.4
20170727175504 79 356 1.0 3.0 0.00 0.22 0.01 61 1024.3
20170727175005 79 5 1.0 3.0 0.00 0.22 0.01 58 1024.3
20170727174504 79 316 2.0 3.0 0.00 0.22 0.01 57 1024.5
20170727174004 79 345 2.0 5.0 0.00 0.22 0.01 58 1024.4
20170727173504 79 192 3.0 3.0 0.00 0.22 0.01 56 1024.7
20170727173004 79 196 1.0 3.0 0.00 0.22 0.01 55 1024.6
20170727172504 79 64 1.0 3.0 0.00 0.22 0.01 56 1025.0
20170727172004 79 5 2.0 3.0 0.00 0.22 0.01 61 1024.9
20170727171504 79 344 3.0 8.0 0.00 0.22 0.01 61 1024.7
20170727171005 78 342 2.0 5.0 0.00 0.22 0.01 63 1024.7
20170727170505 78 286 2.0 3.0 0.00 0.22 0.01 62 1025.0
20170727170004 77 305 1.0 3.0 0.00 0.22 0.01 64 1025.0
20170727165504 77 298 1.0 3.0 0.00 0.22 0.01 64 1024.8
20170727165004 77 298 1.0 3.0 0.00 0.22 0.01 64 1025.2
20170727164503 76 331 4.0 6.0 0.00 0.22 0.01 65 1025.2
20170727164004 76 354 1.0 2.0 0.00 0.22 0.01 66 1025.3
20170727163504 76 355 2.0 5.0 0.00 0.22 0.01 66 1025.3
20170727163005 76 310 2.0 5.0 0.00 0.22 0.01 68 1025.2
20170727162504 76 329 3.0 9.0 0.00 0.22 0.01 68 1025.1
20170727162005 76 336 2.0 8.0 0.00 0.22 0.01 65 1025.1
20170727161504 75 288 2.0 5.0 0.00 0.22 0.01 68 1025.4
20170727161004 75 321 3.0 7.0 0.00 0.22 0.01 68 1025.1
20170727160504 75 305 2.0 5.0 0.00 0.22 0.01 67 1025.2
20170727160004 75 330 1.0 3.0 0.00 0.22 0.01 70 1024.9
20170727155504 74 349 2.0 3.0 0.00 0.22 0.01 70 1025.1
20170727155004 74 309 2.0 5.0 0.00 0.22 0.01 71 1025.0
20170727154504 73 306 2.0 5.0 0.00 0.22 0.01 71 1025.2
20170727154004 73 316 2.0 3.0 0.00 0.22 0.01 75 1025.2
20170727153504 72 306 2.0 5.0 0.00 0.22 0.01 77 1025.2
20170727153004 72 327 1.0 5.0 0.00 0.22 0.01 76 1025.4
20170727152503 71 321 2.0 3.0 0.00 0.22 0.01 78 1025.2
20170727152005 71 319 2.0 3.0 0.00 0.22 0.01 78 1025.3
20170727151504 70 342 2.0 3.0 0.00 0.22 0.01 78 1025.4
20170727151005 70 332 3.0 6.0 0.00 0.22 0.01 79 1025.3
20170727150504 69 229 1.0 3.0 0.00 0.22 0.01 80 1025.3
20170727150004 69 268 2.0 3.0 0.00 0.22 0.01 81 1025.3
20170727145503 68 255 0.0 2.0 0.00 0.22 0.01 83 1025.2
20170727145005 67 255 1.0 2.0 0.00 0.22 0.01 86 1025.2
20170727144504 67 256 1.0 3.0 0.00 0.22 0.01 89 1025.3
20170727144004 66 245 1.0 3.0 0.00 0.22 0.01 92 1025.4
20170727143504 65 312 2.0 3.0 0.00 0.22 0.01 94 1025.2
20170727143005 65 312 0.0 2.0 0.00 0.22 0.01 95 1025.3
20170727142504 64 312 2.0 3.0 0.00 0.22 0.01 96 1025.3
20170727142004 64 305 2.0 3.0 0.00 0.22 0.01 97 1025.2
20170727141504 63 307 0.0 0.0 0.00 0.22 0.01 97 1025.3
20170727141004 63 307 0.0 2.0 0.00 0.22 0.01 97 1025.3
20170727140504 63 307 1.0 3.0 0.00 0.22 0.01 97 1025.3
20170727140005 62 307 1.0 3.0 0.00 0.22 0.01 97 1025.2
20170727135504 62 307 2.0 3.0 0.00 0.22 0.01 97 1025.2
20170727135004 61 307 1.0 2.0 0.00 0.22 0.01 97 1025.1
20170727134503 61 307 0.0 1.0 0.00 0.22 0.01 97 1025.0
20170727134004 60 307 0.0 1.0 0.00 0.22 0.01 97 1024.7
20170727133504 60 307 1.0 3.0 0.00 0.22 0.01 97 1024.7
20170727133005 60 271 1.0 3.0 0.00 0.22 0.01 97 1024.7
20170727132504 59 250 0.0 1.0 0.01 0.22 0.01 97 1024.5
20170727132004 59 250 0.0 1.0 0.01 0.22 0.01 96 1024.4
20170727131505 59 250 1.0 3.0 0.01 0.22 0.01 97 1024.4
20170727131004 59 250 1.0 3.0 0.01 0.22 0.01 96 1024.1
20170727130504 59 207 0.0 0.0 0.01 0.22 0.01 96 1024.2
20170727130004 58 207 0.0 0.0 0.01 0.22 0.01 96 1024.1
20170727125503 58 207 0.0 0.0 0.01 0.22 0.01 96 1024.2
20170727125004 58 207 0.0 0.0 0.01 0.22 0.01 96 1024.0
20170727124504 58 207 0.0 0.0 0.01 0.22 0.01 95 1024.0
20170727124004 58 207 0.0 0.0 0.01 0.22 0.01 95 1024.0
20170727123504 58 207 0.0 0.0 0.01 0.22 0.01 95 1024.0
20170727123004 58 207 0.0 0.0 0.01 0.22 0.01 95 1024.0
20170727122504 58 207 0.0 0.0 0.00 0.21 0.00 95 1024.0
20170727122005 58 207 0.0 0.0 0.00 0.21 0.00 95 1024.0
20170727121504 58 207 0.0 0.0 0.00 0.21 0.00 95 1023.9
20170727121004 58 207 0.0 0.0 0.00 0.21 0.00 95 1024.0
20170727120504 58 207 0.0 0.0 0.00 0.21 0.00 95 1023.9
20170727120004 58 207 0.0 0.0 0.00 0.21 0.00 95 1023.9
20170727115504 59 207 0.0 0.0 0.00 0.21 0.00 95 1023.7
20170727115005 59 207 0.0 0.0 0.00 0.21 0.00 95 1023.7
20170727114504 59 207 0.0 0.0 0.00 0.21 0.00 95 1023.7
20170727114005 59 207 0.0 0.0 0.00 0.21 0.00 95 1023.6
20170727113504 59 207 0.0 0.0 0.00 0.21 0.00 95 1023.5
20170727113004 59 207 0.0 0.0 0.00 0.21 0.00 95 1023.3
20170727112504 59 207 0.0 0.0 0.00 0.21 0.00 95 1023.3
20170727112005 59 207 0.0 0.0 0.00 0.21 0.00 95 1023.4
20170727111504 59 207 0.0 0.0 0.00 0.21 0.00 95 1023.3
20170727111004 59 207 0.0 0.0 0.00 0.21 0.00 95 1023.3
20170727110504 59 207 0.0 0.0 0.00 0.21 0.00 95 1023.3
20170727110004 59 207 0.0 0.0 0.00 0.21 0.00 95 1023.3
20170727105504 59 207 0.0 0.0 0.00 0.21 0.00 95 1023.2
20170727105005 59 207 0.0 0.0 0.00 0.21 0.00 95 1023.2
20170727104504 59 207 0.0 0.0 0.00 0.21 0.00 95 1023.5
20170727104005 60 207 0.0 0.0 0.00 0.21 0.00 94 1023.7
20170727103504 60 208 0.0 0.0 0.00 0.21 0.00 94 1023.8
20170727103004 60 208 0.0 0.0 0.00 0.21 0.00 95 1023.9
20170727102504 60 208 0.0 0.0 0.00 0.21 0.00 95 1024.0
20170727102004 60 207 0.0 0.0 0.00 0.21 0.00 95 1023.8
20170727101503 60 207 0.0 0.0 0.00 0.21 0.00 95 1023.8
20170727101004 60 207 0.0 0.0 0.00 0.21 0.00 94 1023.9
20170727100504 60 208 0.0 0.0 0.00 0.21 0.00 94 1023.8
20170727100004 60 208 0.0 0.0 0.00 0.21 0.00 94 1023.8
20170727095503 60 208 0.0 0.0 0.00 0.21 0.00 95 1023.8
20170727095004 60 208 0.0 0.0 0.00 0.21 0.00 95 1023.8
20170727094504 60 208 0.0 0.0 0.00 0.21 0.00 95 1023.8
20170727094004 61 208 0.0 0.0 0.00 0.21 0.00 95 1023.9
20170727093504 61 208 0.0 0.0 0.00 0.21 0.00 95 1024.0
20170727093004 61 208 0.0 0.0 0.00 0.21 0.00 94 1024.2
20170727092504 61 208 0.0 0.0 0.00 0.21 0.00 94 1024.2
20170727092005 61 208 0.0 0.0 0.00 0.21 0.00 94 1024.2
20170727091505 61 208 0.0 0.0 0.00 0.21 0.00 94 1024.6
20170727091004 61 208 0.0 0.0 0.00 0.21 0.00 95 1024.6
20170727090504 61 208 0.0 0.0 0.00 0.21 0.00 95 1024.7
20170727090004 61 208 0.0 0.0 0.00 0.21 0.00 95 1024.9
20170727085503 61 208 0.0 0.0 0.00 0.21 0.00 95 1024.9
20170727085005 61 208 0.0 0.0 0.00 0.21 0.00 94 1024.8
20170727084504 61 208 0.0 0.0 0.00 0.21 0.00 94 1024.7
20170727084004 61 209 0.0 0.0 0.00 0.21 0.00 95 1024.8
20170727083504 62 209 0.0 0.0 0.00 0.21 0.00 95 1024.8
20170727083004 62 209 0.0 0.0 0.00 0.21 0.00 95 1024.9
20170727082503 62 209 0.0 2.0 0.00 0.21 0.00 95 1025.0
20170727082004 62 209 0.0 3.0 0.00 0.21 0.00 95 1025.2
20170727081504 62 209 1.0 3.0 0.00 0.21 0.00 95 1025.2
20170727081005 62 202 1.0 3.0 0.00 0.21 0.00 95 1025.5
20170727080504 62 208 1.0 3.0 0.00 0.21 0.00 95 1025.6
20170727080004 62 160 2.0 5.0 0.00 0.21 0.00 95 1025.8
20170727075504 62 191 0.0 1.0 0.00 0.21 0.00 95 1025.9
20170727075004 62 191 1.0 3.0 0.00 0.21 0.00 95 1026.0
20170727074504 62 191 0.0 3.0 0.00 0.21 0.00 95 1026.0
20170727074004 62 199 1.0 3.0 0.00 0.21 0.00 95 1026.0
20170727073504 62 186 1.0 3.0 0.00 0.21 0.00 94 1026.0
20170727073004 62 176 1.0 2.0 0.00 0.21 0.00 94 1025.9
20170727072504 62 176 1.0 2.0 0.00 0.21 0.00 94 1026.0
20170727072005 62 176 1.0 2.0 0.00 0.21 0.00 94 1026.0
20170727071504 62 176 1.0 2.0 0.00 0.21 0.00 94 1026.0
20170727071004 62 176 0.0 2.0 0.00 0.21 0.00 94 1026.1
20170727070504 62 176 0.0 3.0 0.00 0.21 0.00 94 1026.1
20170727070004 62 161 1.0 2.0 0.00 0.21 0.00 94 1026.2
20170727065504 62 294 0.0 1.0 0.00 0.21 0.00 94 1026.3
20170727065005 62 294 0.0 0.0 0.00 0.21 0.00 94 1026.5
20170727064504 62 294 0.0 0.0 0.00 0.21 0.00 94 1026.5
20170727064004 62 294 0.0 1.0 0.00 0.21 0.00 94 1026.5
20170727063504 62 294 0.0 2.0 0.00 0.21 0.00 94 1026.6
20170727063005 62 294 1.0 2.0 0.00 0.21 0.00 94 1026.7
20170727062504 62 294 0.0 1.0 0.00 0.21 0.00 94 1026.6
20170727062004 62 294 0.0 2.0 0.00 0.21 0.00 94 1026.8
20170727061504 62 294 0.0 1.0 0.00 0.21 0.00 94 1026.8
20170727061004 62 294 0.0 1.0 0.00 0.21 0.00 94 1027.0
20170727060505 62 294 0.0 1.0 0.00 0.21 0.00 94 1027.0
20170727060004 62 294 0.0 0.0 0.00 0.21 0.00 94 1026.9
20170727055504 62 294 0.0 1.0 0.00 0.21 0.21 94 1027.0
20170727055004 62 294 0.0 1.0 0.00 0.21 0.21 94 1026.9
20170727054504 62 294 0.0 1.0 0.00 0.21 0.21 94 1026.9
20170727054004 62 294 0.0 1.0 0.00 0.21 0.21 94 1026.8
20170727053503 62 294 0.0 1.0 0.00 0.21 0.21 93 1026.9
20170727053004 62 294 0.0 1.0 0.00 0.21 0.21 93 1026.8
20170727052516 62 294 0.0 0.0 0.01 0.21 0.21 93 1026.8
20170727052004 62 294 0.0 1.0 0.03 0.21 0.21 93 1026.7
20170727051504 62 294 0.0 0.0 0.06 0.21 0.21 93 1026.8
20170727051004 62 294 0.0 1.0 0.08 0.21 0.21 93 1026.7
20170727050504 62 294 0.0 2.0 0.08 0.21 0.21 93 1026.6
20170727050004 62 298 0.0 2.0 0.10 0.21 0.21 93 1026.9
20170727045504 62 299 0.0 2.0 0.11 0.21 0.21 92 1027.0
20170727045004 62 299 0.0 1.0 0.12 0.21 0.21 92 1027.0
20170727044504 62 299 0.0 2.0 0.13 0.21 0.21 92 1026.8
20170727044003 62 298 0.0 3.0 0.15 0.21 0.21 92 1026.8
20170727043504 62 197 1.0 2.0 0.15 0.21 0.21 92 1026.9
20170727043005 63 194 1.0 2.0 0.16 0.21 0.21 92 1027.0
20170727042504 63 193 1.0 2.0 0.15 0.20 0.20 91 1027.2
20170727042003 63 194 2.0 3.0 0.14 0.18 0.18 91 1027.1
20170727041504 63 243 2.0 3.0 0.12 0.15 0.15 91 1026.9
20170727041004 63 327 2.0 5.0 0.10 0.13 0.13 91 1026.7
20170727040504 63 331 5.0 8.0 0.12 0.13 0.13 90 1026.5
20170727040004 63 309 1.0 3.0 0.10 0.11 0.11 90 1026.5
20170727035504 63 318 1.0 2.0 0.09 0.10 0.10 89 1026.4
20170727035005 63 318 2.0 6.0 0.09 0.09 0.09 89 1026.4
20170727034504 63 307 3.0 5.0 0.08 0.08 0.08 88 1026.4
20170727034004 63 328 3.0 8.0 0.06 0.06 0.06 87 1026.4
20170727033504 64 313 3.0 12.0 0.06 0.06 0.06 86 1026.3
20170727033004 64 315 3.0 8.0 0.05 0.05 0.05 86 1026.3
20170727032505 64 320 4.0 10.0 0.05 0.05 0.05 85 1026.2
20170727032004 65 318 3.0 10.0 0.04 0.04 0.04 84 1026.2
20170727031504 65 314 5.0 13.0 0.03 0.03 0.03 84 1026.1
20170727031004 65 296 6.0 13.0 0.03 0.03 0.03 83 1026.1
20170727030504 66 313 4.0 10.0 0.01 0.01 0.01 82 1025.9
20170727030003 66 306 5.0 9.0 0.01 0.01 0.01 81 1025.7
20170727025504 66 304 5.0 12.0 0.01 0.01 0.01 81 1025.9
20170727025004 67 306 5.0 10.0 0.00 0.00 0.00 80 1025.8
20170727024504 67 321 6.0 12.0 0.00 0.00 0.00 78 1025.5
20170727024003 67 341 3.0 10.0 0.00 0.00 0.00 77 1025.6
20170727023504 68 312 5.0 12.0 0.00 0.00 0.00 76 1025.6
20170727023004 68 323 7.0 14.0 0.00 0.00 0.00 74 1025.5
20170727022503 69 339 8.0 14.0 0.00 0.00 0.00 72 1025.7
20170727022004 70 318 4.0 12.0 0.00 0.00 0.00 71 1025.3
20170727021504 70 326 5.0 12.0 0.00 0.00 0.00 69 1025.2
20170727021004 71 336 5.0 15.0 0.00 0.00 0.00 66 1024.9
20170727020504 72 331 5.0 18.0 0.00 0.00 0.00 65 1025.2
20170727020003 72 328 4.0 15.0 0.00 0.00 0.00 63 1024.7
20170727015504 73 350 5.0 12.0 0.00 0.00 0.00 64 1024.9
20170727015004 73 321 7.0 14.0 0.00 0.00 0.00 67 1024.8
20170727014504 74 326 4.0 9.0 0.00 0.00 0.00 68 1024.6
20170727014005 74 309 1.0 3.0 0.00 0.00 0.00 68 1024.6
20170727013503 74 298 2.0 8.0 0.00 0.00 0.00 67 1024.6
20170727013004 74 324 5.0 8.0 0.00 0.00 0.00 67 1024.4
20170727012503 74 317 3.0 7.0 0.00 0.00 0.00 68 1024.3
20170727012005 74 320 3.0 5.0 0.00 0.00 0.00 68 1024.2
20170727011504 74 316 3.0 8.0 0.00 0.00 0.00 68 1024.4
20170727011004 74 306 6.0 10.0 0.00 0.00 0.00 67 1024.3
20170727010504 74 297 3.0 10.0 0.00 0.00 0.00 67 1024.3
20170727010004 74 311 4.0 8.0 0.00 0.00 0.00 67 1024.4
20170727005504 74 352 3.0 6.0 0.00 0.00 0.00 67 1024.4
20170727005004 74 319 2.0 3.0 0.00 0.00 0.00 67 1024.3
20170727004504 74 1 2.0 8.0 0.00 0.00 0.00 67 1024.3
20170727004004 74 317 4.0 10.0 0.00 0.00 0.00 67 1024.4
20170727003517 75 308 4.0 8.0 0.00 0.00 0.00 67 1024.4
20170727003012 74 312 3.0 8.0 0.00 0.00 0.00 68 1024.3
20170727002505 74 335 6.0 12.0 0.00 0.00 0.00 67 1024.1
20170727002004 74 298 5.0 9.0 0.00 0.00 0.00 69 1023.9
20170727001504 74 294 2.0 5.0 0.00 0.00 0.00 69 1023.8
20170727001004 74 324 3.0 9.0 0.00 0.00 0.00 68 1023.9
20170727000504 74 304 3.0 7.0 0.00 0.00 0.00 68 1023.9
20170727000003 74 314 3.0 9.0 0.00 0.00 0.00 68 1023.9
20170726235504 74 312 2.0 7.0 0.00 0.00 0.00 66 1023.8
20170726235004 75 317 3.0 5.0 0.00 0.00 0.00 65 1023.7
20170726234503 75 301 4.0 8.0 0.00 0.00 0.00 64 1023.8
20170726234004 75 287 3.0 8.0 0.00 0.00 0.00 62 1023.9
20170726233504 75 308 1.0 7.0 0.00 0.00 0.00 62 1023.9
20170726233004 75 327 1.0 3.0 0.00 0.01 0.00 61 1023.8
20170726232504 75 327 3.0 8.0 0.00 0.01 0.00 59 1023.8
20170726232004 76 355 2.0 5.0 0.00 0.01 0.00 59 1023.9
20170726231505 76 312 1.0 5.0 0.00 0.02 0.00 59 1024.0
20170726231004 76 323 3.0 5.0 0.00 0.02 0.00 59 1023.9
20170726230504 76 295 3.0 7.0 0.00 0.03 0.00 58 1023.8
20170726230004 77 318 5.0 8.0 0.00 0.03 0.00 58 1023.9
20170726225504 77 308 5.0 10.0 0.00 0.03 0.00 58 1023.9
20170726225004 78 22 4.0 8.0 0.00 0.03 0.00 58 1023.7
20170726224504 78 293 2.0 5.0 0.00 0.03 0.00 58 1023.9
20170726224004 78 295 4.0 10.0 0.00 0.03 0.00 57 1023.7
20170726223504 79 329 4.0 9.0 0.00 0.03 0.00 56 1023.7
20170726223005 79 14 1.0 3.0 0.00 0.03 0.00 58 1023.6
20170726222504 79 5 1.0 3.0 0.00 0.03 0.00 56 1023.5
20170726222004 79 5 2.0 5.0 0.00 0.03 0.00 57 1023.4
20170726221504 79 31 0.0 1.0 0.00 0.03 0.00 56 1023.3
20170726221004 79 31 2.0 3.0 0.00 0.03 0.00 57 1023.5
20170726220504 79 322 1.0 3.0 0.00 0.03 0.00 58 1023.5
20170726220004 78 338 2.0 5.0 0.00 0.03 0.00 59 1023.9
20170726215505 79 10 1.0 3.0 0.00 0.03 0.00 61 1024.1
20170726215005 79 16 2.0 3.0 0.00 0.03 0.00 61 1024.2
20170726214504 79 320 3.0 6.0 0.00 0.03 0.00 60 1024.0
20170726214003 79 316 2.0 3.0 0.00 0.03 0.00 57 1024.0
20170726213504 79 301 2.0 3.0 0.00 0.03 0.00 55 1024.0
20170726213005 79 17 2.0 5.0 0.00 0.03 0.00 54 1024.0
20170726212504 79 0 3.0 8.0 0.00 0.03 0.00 55 1024.0
20170726212003 79 311 2.0 3.0 0.00 0.03 0.00 53 1023.9
20170726211504 79 311 1.0 3.0 0.00 0.03 0.00 54 1024.0
20170726211004 79 309 3.0 3.0 0.00 0.03 0.00 53 1023.9
20170726210504 79 95 1.0 3.0 0.00 0.03 0.00 53 1023.9
20170726210005 79 20 0.0 3.0 0.00 0.03 0.00 55 1023.9
20170726205504 79 17 4.0 9.0 0.00 0.03 0.00 54 1023.9
20170726205004 79 24 5.0 12.0 0.00 0.03 0.00 56 1023.9
20170726204504 79 317 2.0 5.0 0.00 0.03 0.00 56 1024.0
20170726204004 79 335 3.0 5.0 0.00 0.03 0.00 56 1024.0
20170726203004 79 24 6.0 8.0 0.00 0.03 0.00 55 1024.0
20170726202503 79 355 2.0 8.0 0.00 0.03 0.00 56 1024.0
20170726201504 79 316 1.0 3.0 0.00 0.03 0.00 56 1024.0
20170726201004 79 306 2.0 5.0 0.00 0.03 0.00 57 1023.9
20170726200503 79 302 2.0 5.0 0.00 0.03 0.00 56 1023.8
20170726200004 79 5 2.0 3.0 0.00 0.03 0.00 57 1024.1
20170726195504 79 17 1.0 3.0 0.00 0.03 0.00 53 1024.3
20170726195005 79 356 2.0 5.0 0.00 0.03 0.00 55 1024.4
20170726194504 79 19 1.0 7.0 0.00 0.03 0.00 55 1024.5
20170726194004 79 345 2.0 3.0 0.00 0.03 0.00 53 1024.5
20170726193504 79 35 2.0 5.0 0.00 0.03 0.00 54 1024.5
20170726193005 80 115 2.0 3.0 0.00 0.03 0.00 53 1024.5
20170726192504 80 28 3.0 8.0 0.00 0.03 0.00 55 1024.5
20170726192004 80 12 2.0 6.0 0.00 0.03 0.00 56 1024.7
20170726191504 79 11 2.0 3.0 0.00 0.03 0.00 57 1024.4
20170726191005 78 134 1.0 3.0 0.00 0.03 0.00 59 1024.7
20170726190504 78 268 2.0 3.0 0.00 0.03 0.00 60 1024.7
20170726190004 77 13 2.0 5.0 0.00 0.03 0.00 59 1024.7
20170726185504 77 15 2.0 3.0 0.00 0.03 0.00 61 1024.8
20170726185005 76 293 1.0 3.0 0.00 0.03 0.00 61 1024.7